Back to catalog

STARLINK-37343

AliveCommunicationsVLEO
NORAD 69159·PAYLOAD·🇺🇸 United States

Launched May 21, 2026 from Cape Canaveral Space Force Station

Loading…

Next Passes (next 24 hours)

TLE

FreshSource: CelesTrak SupGP

Epoch: Sep 14, 2026, 15:52 UTC

1 69159C 26111M   26257.66159722 -.00028814  00000+0 -85114-3 0  2574
2 69159  53.1579  93.1301 0001216  95.3398 174.0613 15.34411822    10

Track STARLINK-37343 in real time with AllMySat

Download on the App Store